DW4691 Weather Reports


time (UTC)temp
F
wind
direction
speed
knots
gust
knots
rain 1hr
in
rain 24hr
in
rain mn
in
humidity
%
barometer
mb
20200124020205 46 325 0.0 0.0 0.00 0.00 0.00 93 1018.5
20200124014614 47 325 0.0 0.0 0.00 0.00 0.00 92 1018.3
20200124013105 47 325 0.0 0.0 0.00 0.00 0.00 92 1018.3
20200124011705 48 325 0.0 0.0 0.00 0.00 0.00 91 1018.0
20200124010102 48 325 0.0 0.0 0.00 0.00 0.00 90 1017.8
20200124004545 49 325 0.0 0.0 0.00 0.00 0.00 88 1017.5
20200124003047 50 325 0.0 0.0 0.00 0.00 0.00 88 1017.2
20200124001616 51 325 0.0 0.0 0.00 0.00 0.00 87 1017.2
20200124000023 52 325 0.0 0.0 0.00 0.00 0.00 85 1017.0
20200123234526 53 324 0.0 0.0 0.00 0.00 0.00 84 1016.8
20200123233030 54 290 0.0 0.0 0.00 0.00 0.00 83 1016.5
20200123231508 55 289 0.0 0.0 0.00 0.00 0.00 81 1016.1
20200123230031 56 288 0.0 0.0 0.00 0.00 0.00 77 1016.2
20200123224506 56 13 0.0 0.0 0.00 0.00 0.00 81 1016.3
20200123223012 56 59 0.0 0.0 0.00 0.00 0.00 79 1016.2
20200123221509 57 284 0.0 0.0 0.00 0.00 0.00 77 1016.1
20200123220001 57 313 0.0 0.0 0.00 0.00 0.00 78 1015.6
20200123214501 57 295 0.0 0.0 0.00 0.00 0.00 79 1015.5
20200123213252 57 360 0.9 0.0 0.00 0.00 0.00 78 1015.2
20200123211813 58 5 0.0 0.0 0.00 0.00 0.00 78 1015.4
20200123210233 58 304 0.9 0.0 0.00 0.00 0.00 79 1015.3
20200123204713 57 27 0.0 0.0 0.00 0.00 0.00 82 1015.4
20200123203159 57 113 0.0 0.0 0.00 0.00 0.00 84 1015.3
20200123201803 56 118 0.0 0.0 0.00 0.00 0.00 84 1015.4
20200123200254 57 280 0.9 0.0 0.00 0.00 0.00 85 1015.9
20200123194643 57 5 0.0 0.0 0.00 0.00 0.00 86 1015.7
20200123193238 58 349 0.0 0.0 0.00 0.00 0.00 86 1015.6
20200123191631 58 5 0.9 0.0 0.00 0.00 0.00 87 1015.6
20200123190247 57 305 0.0 0.0 0.00 0.00 0.00 88 1015.5
20200123184816 58 14 0.0 0.0 0.00 0.00 0.00 90 1015.6
20200123183243 57 15 0.0 0.0 0.00 0.00 0.00 90 1015.9
20200123181653 57 355 0.0 0.0 0.00 0.00 0.00 90 1016.1
20200123180204 57 12 0.0 0.0 0.00 0.00 0.00 90 1016.1
20200123174635 58 331 0.0 0.0 0.00 0.00 0.00 91 1016.2
20200123173249 57 274 0.0 0.0 0.00 0.00 0.00 91 1016.0
20200123171847 57 90 0.0 0.0 0.00 0.00 0.00 92 1016.0
20200123170059 57 333 0.0 0.0 0.00 0.00 0.00 93 1016.0
20200123164725 57 261 0.0 0.0 0.00 0.00 0.00 95 1015.7
20200123163154 56 261 0.0 0.0 0.00 0.00 0.00 96 1015.6
20200123161707 56 253 0.0 0.0 0.00 0.00 0.00 96 1015.7
20200123160149 56 235 0.0 0.0 0.00 0.00 0.00 96 1015.5
20200123154556 56 236 0.0 0.0 0.00 0.00 0.00 96 1015.4
20200123153129 56 236 0.0 0.0 0.00 0.00 0.00 96 1015.2
20200123151613 57 236 0.0 0.0 0.00 0.00 0.00 97 1014.9
20200123150150 57 229 0.0 0.0 0.00 0.00 0.00 97 1014.7
20200123144601 56 227 0.0 0.0 0.00 0.00 0.00 97 1014.7
20200123143120 55 156 0.0 0.0 0.00 0.00 0.00 97 1014.4
20200123141600 55 156 0.0 0.0 0.00 0.00 0.00 97 1014.3
20200123140119 55 156 0.0 0.0 0.00 0.00 0.00 97 1014.2
20200123134642 55 156 0.0 0.0 0.00 0.00 0.00 97 1014.0
20200123133113 55 156 0.0 0.0 0.00 0.00 0.00 96 1014.0
20200123131549 55 156 0.0 0.0 0.00 0.00 0.00 96 1013.7
20200123130029 56 156 0.0 0.0 0.00 0.00 0.00 97 1013.4
20200123124648 56 156 0.0 0.0 0.00 0.00 0.00 97 1013.3
20200123123053 55 156 0.0 0.0 0.00 0.00 0.00 97 1013.3
20200123121545 55 156 0.0 0.0 0.00 0.00 0.00 97 1012.9
20200123120054 54 156 0.0 0.0 0.00 0.00 0.00 96 1012.6
20200123114618 53 156 0.0 0.0 0.00 0.00 0.00 96 1012.5
20200123113058 54 156 0.0 0.0 0.00 0.00 0.00 96 1012.5
20200123111626 55 156 0.0 0.0 0.00 0.00 0.00 96 1012.4
20200123110050 55 156 0.0 0.0 0.00 0.00 0.00 96 1012.4
20200123104514 56 156 0.0 0.0 0.00 0.00 0.00 96 1012.4
20200123103023 57 156 0.0 0.0 0.00 0.00 0.00 96 1012.4
20200123101526 57 156 0.0 0.0 0.00 0.00 0.00 96 1012.4
20200123100020 57 156 0.0 0.0 0.00 0.00 0.00 96 1012.5
20200123094517 58 156 0.0 0.0 0.00 0.00 0.00 96 1012.5
20200123093040 58 156 0.0 0.0 0.00 0.00 0.00 96 1012.6
20200123090015 58 156 0.0 0.0 0.00 0.00 0.00 96 1012.4
20200123084508 58 156 0.0 0.0 0.00 0.00 0.00 96 1012.5
20200123083006 58 156 0.0 0.0 0.00 0.00 0.00 96 1012.5
20200123081504 58 156 0.0 0.0 0.00 0.00 0.00 96 1012.2
20200123080015 58 156 0.0 0.0 0.00 0.00 0.00 96 1012.2
20200123074505 58 156 0.0 0.0 0.00 0.00 0.00 96 1011.9
20200123073240 57 156 0.0 0.0 0.00 0.00 0.00 96 1012.1
20200123071718 57 156 0.0 0.0 0.00 0.00 0.00 96 1012.6
20200123070242 57 156 0.0 0.0 0.00 0.00 0.00 96 1012.7
20200123064725 57 156 0.0 0.0 0.00 0.00 0.00 96 1012.8
20200123063218 57 156 0.0 0.0 0.00 0.00 0.00 96 1013.2
20200123061654 57 156 0.0 0.0 0.00 0.00 0.00 96 1013.3
20200123060258 57 156 0.0 0.0 0.00 0.00 0.00 96 1013.5
20200123054706 57 156 0.0 0.0 0.00 0.00 0.71 96 1013.7
20200123053348 57 156 0.0 0.0 0.00 0.00 0.71 96 1013.8
20200123051716 57 156 0.0 0.0 0.00 0.00 0.69 96 1014.1
20200123050241 57 156 0.0 0.0 0.00 0.00 0.65 96 1014.0
20200123044748 57 156 0.0 0.0 0.00 0.00 0.64 96 1014.0
20200123043148 57 169 0.0 0.0 0.00 0.00 0.61 96 1014.2
20200123041643 57 120 0.0 0.0 0.00 0.00 0.52 96 1013.9
20200123040142 57 150 0.0 0.0 0.00 0.00 0.51 96 1014.0
20200123034711 56 144 0.0 0.0 0.00 0.00 0.51 96 1014.3
20200123033110 56 144 0.0 0.0 0.00 0.00 0.51 96 1014.4
20200123031620 56 138 0.0 0.0 0.00 0.00 0.49 96 1014.4
20200123030129 56 127 0.0 0.0 0.00 0.00 0.49 95 1014.7
20200123024703 56 127 0.0 0.0 0.00 0.00 0.49 95 1014.7
20200123023223 56 127 0.0 0.0 0.00 0.00 0.49 95 1014.9
20200123021631 56 121 0.0 0.0 0.00 0.00 0.48 95 1015.0